Weather History for Miami, FL

Change the Weather History Date:

Saturday, December 1, 2012

  Actual Average Record
Temperature  
Mean Temperature 75 °F 73 °F  
Max Temperature 80 °F 80 °F 87 °F (1902)
Min Temperature 69 °F 66 °F 43 °F (1945)
Degree Days  
Heating Degree Days 0 0  
Month to date heating degree days 0 0  
Since 1 July heating degree days 1 3  
Cooling Degree Days 10 8  
Month to date cooling degree days 10 8  
Year to date cooling degree days 4450 4380  
Growing Degree Days 24 (Base 50)    
Moisture  
Dew Point 62 °F    
Average Humidity 71    
Maximum Humidity 90    
Minimum Humidity 52    
Precipitation  
Precipitation 0.04 in 0.08 in 1.65 in (1918)
Month to date precipitation 0.04 0.08  
Year to date precipitation 86.47 59.94  
Snow  
Snow 0.00 in - - ()
Month to date snowfall 0.0  
Since 1 July snowfall 0.0  
Snow Depth 0.00 in    
Sea Level Pressure  
Sea Level Pressure 30.15 in    
Wind  
Wind Speed 11 mph (NE)    
Max Wind Speed 18 mph    
Max Gust Speed 25 mph    
Visibility 10 miles    
Events Rain    
T = Trace of Precipitation, MM = Missing Value Source: NWS Daily Summary

Daily Weather History Graph

Daily Weather History Graph

Search for Another Location

Airport:

Trip Planner

Search our weather history database for the weather conditions in past years. The results will help you decide how hot, cold, wet, or windy it might be!

Date:

Astronomy

Dec. 01, 2012 Rise Set
Actual Time 6:51 AM EST 5:29 PM EST
Civil Twilight 6:26 AM EST 5:54 PM EST
Nautical Twilight 5:57 AM EST 6:23 PM EST
Astronomical Twilight 5:29 AM EST 6:51 PM EST
Moon 8:13 PM EST 9:06 AM EST
Length of Visible Light 11h 28m
Length of Day
10h 38m
Waning Gibbous, 92% of the Moon is Illuminated
Dec 1
Waning Gibbous
Dec 6
Last Quarter
Dec 13
New
Dec 20
First Quarter
Dec 28
Full

Hourly Weather History & Observations

Time (EST) Temp. Dew Point Humidity Pressure Visibility Wind Dir Wind Speed Gust Speed Precip Events Conditions
12:53 AM 70.0 °F 66.0 °F 87% 30.15 in 10.0 mi Variable 4.6 mph - N/A   Overcast
1:53 AM 71.1 °F 64.9 °F 81% 30.14 in 10.0 mi NE 6.9 mph - 0.00 in   Overcast
2:53 AM 71.1 °F 64.9 °F 81% 30.12 in 10.0 mi NE 6.9 mph - 0.00 in Rain Light Rain
3:53 AM 69.1 °F 64.0 °F 84% 30.13 in 10.0 mi East 10.4 mph - 0.00 in Rain Light Rain
4:53 AM 69.1 °F 64.9 °F 87% 30.13 in 7.0 mi East 10.4 mph 19.6 mph 0.00 in Rain Light Rain
5:53 AM 70.0 °F 64.9 °F 84% 30.13 in 5.0 mi ENE 11.5 mph - 0.02 in Rain Light Rain
6:53 AM 71.6 °F 64.4 °F 78% 30.14 in 10.0 mi NNE 4.6 mph - N/A   Mostly Cloudy
7:53 AM 71.1 °F 64.9 °F 81% 30.16 in 10.0 mi ENE 4.6 mph - N/A   Mostly Cloudy
8:53 AM 75.0 °F 64.0 °F 69% 30.17 in 10.0 mi ENE 6.9 mph - N/A   Scattered Clouds
9:53 AM 75.9 °F 62.1 °F 62% 30.19 in 10.0 mi NE 13.8 mph 20.7 mph N/A   Scattered Clouds
10:53 AM 77.0 °F 61.0 °F 58% 30.19 in 10.0 mi ENE 12.7 mph 23.0 mph N/A   Scattered Clouds
11:53 AM 79.0 °F 61.0 °F 54% 30.18 in 10.0 mi ENE 12.7 mph - N/A   Scattered Clouds
12:53 PM 78.8 °F 60.8 °F 54% 30.16 in 10.0 mi ENE 13.8 mph - N/A   Scattered Clouds
1:53 PM 78.1 °F 60.1 °F 54% 30.15 in 10.0 mi NE 13.8 mph - N/A   Scattered Clouds
2:53 PM 78.1 °F 59.0 °F 52% 30.14 in 10.0 mi ENE 15.0 mph 20.7 mph N/A   Scattered Clouds
3:53 PM 77.0 °F 60.1 °F 56% 30.14 in 10.0 mi ENE 11.5 mph 20.7 mph N/A   Scattered Clouds
4:53 PM 75.9 °F 59.0 °F 56% 30.14 in 10.0 mi NE 13.8 mph - N/A   Scattered Clouds
5:53 PM 73.9 °F 59.0 °F 59% 30.14 in 10.0 mi NE 10.4 mph - N/A   Scattered Clouds
6:53 PM 73.0 °F 60.1 °F 64% 30.15 in 10.0 mi NE 8.1 mph - N/A   Partly Cloudy
7:53 PM 73.0 °F 60.1 °F 64% 30.17 in 10.0 mi NE 8.1 mph - N/A   Partly Cloudy
8:53 PM 73.0 °F 61.0 °F 66% 30.17 in 10.0 mi NE 6.9 mph - N/A   Scattered Clouds
9:53 PM 73.9 °F 63.0 °F 68% 30.18 in 10.0 mi ENE 12.7 mph - N/A   Mostly Cloudy
10:53 PM 73.9 °F 62.1 °F 66% 30.18 in 10.0 mi ENE 6.9 mph - N/A   Scattered Clouds
11:53 PM 73.0 °F 64.9 °F 76% 30.17 in 10.0 mi ENE 9.2 mph 16.1 mph 0.00 in Rain Light Rain